Regional Weather Roundup
Issued by NWS

Home | Current Version | Previous Version | Text Only | Print | Product List | Glossary On
Versions: 1 2 3 4 5 6 7 8 9 10 11 12 13 14 15 16 17 18 19 20 21 22 23 24 25 26 27 28 29 30 31 32 33 34 35 36 37 38 39 40 41 42 43 44 45 46 47 48 49 50
000
ASUS43 KDTX 082210
RWRMI
MICHIGAN HOURLY REGIONAL WEATHER ROUNDUP
NATIONAL WEATHER SERVICE DETROIT/PONTIAC MI
500 PM EST THU DEC 08 2016

NOTE: "FAIR" INDICATES FEW OR NO CLOUDS BELOW 12,000 FEET WITH NO
SIGNIFICANT WEATHER AND/OR OBSTRUCTION TO VISIBILITY.

MIZ047>049-052>055-059>063-066>070-074>076-081>083-082300-
SOUTHEAST LOWER MICHIGAN

CITY           SKY/WX    TMP DP  RH WIND       PRES   REMARKS
ADRIAN         LGT SNOW  22  17  81 W15G26    30.22R WCI   9
ALMA           MOCLDY    27  22  79 W13G18    30.13R WCI  17
ANN ARBOR      LGT SNOW  25  20  81 SW16      30.17R WCI  12
BAD AXE        CLOUDY    28  20  71 W14       30.04R WCI  17
CARO           CLOUDY    28  20  71 W13G18    30.08R WCI  17
DETROIT CITY   FLURRIES  27  19  72 W15G25    30.15R WCI  15
DETROIT        LGT SNOW  27  20  75 W15       30.18R WCI  15
FLINT          CLOUDY    27  18  69 W16G26    30.12R WCI  15
GROSSE ILE     CLOUDY    27  20  75 W13G22    30.17R WCI  16
HILLSDALE      LGT SNOW  21  18  86 W13       30.19R WCI   9
HOWELL         LGT SNOW  26  20  80 W16       30.14R WCI  13

CITY           SKY/WX    TMP DP  RH WIND       PRES   REMARKS
JACKSON        LGT SNOW  24  18  77 W15       30.18R WCI  11
LAMBERTVILLE   LGT SNOW  25  19  77 W15G23    30.23R WCI  13
LANSING        FLURRIES  26  19  74 W17       30.16R WCI  13
LAPEER         NOT AVBL
MASON          FLURRIES  25  22  86 W8        30.16R WCI  16
MONROE         FLURRIES  25  20  82 W18G25    30.19R WCI  11
MT. CLEMENS    CLOUDY    28  17  64 W16G26    30.10R WCI  16
PONTIAC        CLOUDY    25  18  74 W18G26    30.11R WCI  11
PORT HOPE        N/A     31  21  66 W9G20     29.99R WCI  23
PORT HURON     CLOUDY    28  18  64 W7G17     30.10R WCI  21
TRI CITIES     CLOUDY    29  21  72 W16       30.10R WCI  17
MIDLAND        CLOUDY    30  20  66 W14G21    30.09R WCI  19
TROY           CLOUDY    28  15  58 W22G28    30.15R WCI  15
SAGINAW HB     CLOUDY    30  19  64 W12G21    30.10R WCI  21
$$
MIZ043>046-050>051-056>058-064>065-071>073-077>080-082300-
SOUTHWEST LOWER MICHIGAN

CITY           SKY/WX    TMP DP  RH WIND       PRES   REMARKS
BATTLE CREEK   LGT SNOW  25  21  85 W12       30.21R FOG     WCI  14
BENTON HARBOR  LGT SNOW  27  19  72 W20G31    30.27R WCI  13
BIG RAPIDS     CLOUDY    26  23  87 W9        30.11R WCI  17
COLDWATER      LGT SNOW  22  18  87 SW16      30.23R WCI   8
FREMONT        LGT SNOW  29  25  86 W7        30.16R WCI  21
HOLLAND        LGT SNOW  29  23  78 W15G24    30.21R WCI  18
GRAND RAPIDS   LGT SNOW  27  22  81 W14       30.18R WCI  16
IONIA          FLURRIES  27  22  82 W13       30.16R WCI  16
KALAMAZOO      LGT SNOW  25  19  78 W9        30.23R WCI  15
LUDINGTON      LGT SNOW  31  25  78 NW9G16    30.14R WCI  22
MARSHALL       LGT SNOW  24  21  87 SW12      30.20R WCI  13
MOUNT PLEASANT CLEAR     27  22  80 W10       30.10R WCI  17
MUSKEGON       CLOUDY    31  22  69 W18G26    30.19R WCI  19
SOUTH HAVEN    FLURRIES  28  21  75 W14G22    30.25R WCI  17
$$
MIZ016>042-082300-
NORTHERN LOWER MICHIGAN

CITY           SKY/WX    TMP DP  RH WIND       PRES   REMARKS
ALPENA         CLEAR     29  20  69 NW12G20   30.01R WCI  19
BEAVER ISLAND  PTCLDY    29  21  73 N13G21    30.08R WCI  19
BELLAIRE       CLEAR     30  19  63 NW8       30.08R WCI  23
CADILLAC       CLOUDY    28  24  85 NW13      30.05R WCI  17
CHARLEVOIX     PTCLDY    31  19  61 NW16G24   30.10R WCI  20
FRANKFORT      CLOUDY    32  24  71 N16       30.11R WCI  22
GAYLORD        MOCLDY    28  16  60 NW7       30.01R WCI  21
GRAYLING       CLEAR     28  19  71 NW9       30.04R WCI  19
HARBOR SPRINGS LGT SNOW  29  19  65 NW8       30.06R WCI  21
HOUGHTON LAKE  CLOUDY    27  22  81 NW10      30.05R WCI  17
MANISTEE       FLURRIES  30  25  80 NW17G28   30.13R WCI  18
OSCODA         LGT SNOW  30  26  86 W5        30.01R WCI  25
PELLSTON       PTCLDY    28  14  55 NW23G33   30.06R WCI  14
ROGERS CITY    FLURRIES  30  20  64 NW10G21   30.02R WCI  21
TRAVERSE CITY  LGT SNOW  31  26  82 N14G22    30.09R VSB 1   WCI  21
$$
MIZ007>008-015-082300-
EASTERN UPPER MICHIGAN

CITY           SKY/WX    TMP DP  RH WIND       PRES   REMARKS
KINROSS        LGT SNOW  25  23  93 NW10      30.02R FOG     WCI  15
MACKINAC ISLAN CLEAR     27  20  74 NW12G21   30.03R WCI  17
NEWBERRY       LGT SNOW  25  23  91 NW7       30.05R WCI  18
S. S. MARIE    MOCLDY    27  15  61 NW13G20   30.01R WCI  16
MUNISING         N/A     32  22  66 N28G37    30.10R WCI  18
$$
MIZ004>006-011>014-085-082300-
CENTRAL UPPER MICHIGAN

CITY           SKY/WX    TMP DP  RH WIND       PRES   REMARKS
MANISTIQUE     LGT SNOW  27  23  86 NW8       30.10R WCI  18
ESCANABA       PTCLDY    29  20  69 NW13      30.15R WCI  19
MENOMINEE      FLURRIES  30  20  66 NW7       30.18R WCI  23
SAWYER-GWINN   LGT SNOW  25  19  80 NW15G30   30.11  WCI  12
$$
MIZ001>003-009>011-084-082300-
WESTERN UPPER MICHIGAN

CITY           SKY/WX    TMP DP  RH WIND       PRES   REMARKS
IRON MOUNTAIN  MOCLDY    26  16  65 NW14      30.15R WCI  14
HOUGHTON       LGT SNOW  24  16  71 N16G31    30.16R VSB 1   WCI  11
COPPER HARBOR    N/A     28  20  71 N28G37    30.16R WCI  13
IRONWOOD       FLURRIES  25  17  72 NW12      30.24R WCI  14
$$

ABBREVIATIONS USED IN REMARKS
   TC - TEMPERATURE IN CELSIUS
  WCI - WIND CHILL INDEX
   HX - HEAT INDEX
  VSB - VISIBILITY




USA.gov is the U.S. government's official web portal to all federal, state and local government web resources and services.